Location: Albany
(35.0000°S, 118.0000°E)
Time: 17:22:31
(UTC-05:00)

ERS-1 Rocket - Visible Passes

Search period start: 18 December 2014 00:00
Search period end: 28 December 2014 00:00
Orbit: 754 x 760 km, 98.7° (Epoch: 17 December)

Date Brightness Start Highest point End Pass type
(mag) Time Alt. Az. Time Alt. Az. Time Alt. Az.
18 Dec 5.1 07:54:40 10° S 07:58:58 28° WSW 08:03:14 10° NW visible
19 Dec 3.4 07:14:58 10° S 07:20:03 70° WSW 07:25:04 10° NNW visible
20 Dec 5.7 08:15:53 10° SSW 08:19:16 18° WSW 08:22:38 10° WNW visible
21 Dec 4.3 07:35:39 10° S 07:40:28 43° WSW 07:45:13 10° NW visible
22 Dec 3.0 06:56:18 10° SSE 07:01:26 76° ENE 07:06:28 10° N visible
22 Dec 6.1 08:37:56 10° SW 08:39:30 11° WSW 08:41:04 10° W visible
23 Dec 5.1 07:56:33 10° SSW 08:00:49 27° WSW 08:05:02 10° NW visible
24 Dec 3.4 07:16:49 10° S 07:21:54 68° WSW 07:26:54 10° NNW visible
25 Dec 5.8 08:17:47 10° SSW 08:21:06 18° WSW 08:24:24 10° WNW visible
26 Dec 4.3 07:37:31 10° S 07:42:18 42° WSW 07:47:02 10° NW visible
27 Dec 3.0 06:58:09 10° SSE 07:03:16 78° ENE 07:08:19 10° N visible
27 Dec 6.1 08:39:57 10° SW 08:41:19 11° WSW 08:42:41 10° WSW visible
